EW7541 Weather Reports


Display with metric or nautical units.
time (UTC)temp
F
wind
direction
speed
MPH
gust
MPH
rain 1hr
in
rain 24hr
in
rain mn
in
humidity
%
barometer
mb
20210927192519 73 0.0 0.0 0.00 0.00 0.00 65 1019.7
20210927191519 73 0.0 0.0 0.00 0.00 0.00 67 1019.9
20210927190519 73 0.0 0.0 0.00 0.00 0.00 65 1020.2
20210927185519 73 0.0 0.0 0.00 0.00 0.00 63 1020.4
20210927184519 73 0.0 0.0 0.00 0.00 0.00 64 1020.5
20210927183519 74 0.0 0.0 0.00 0.00 0.00 64 1020.7
20210927182519 73 0.0 0.0 0.00 0.00 0.00 63 1020.9
20210927181519 73 0.0 0.0 0.00 0.00 0.00 63 1020.9
20210927180519 73 0.0 0.0 0.00 0.00 0.00 63 1020.9
20210927175518 73 0.0 0.0 0.00 0.00 0.00 64 1020.9
20210927174518 73 0.0 0.0 0.00 0.00 0.00 64 1021.3
20210927173519 72 0.0 0.0 0.00 0.00 0.00 65 1021.2
20210927172518 72 0.0 0.0 0.00 0.00 0.00 65 1021.4
20210927171518 73 0.0 0.0 0.00 0.00 0.00 63 1021.5
20210927170518 72 0.0 0.0 0.00 0.00 0.00 62 1021.6
20210927165519 72 0.0 0.0 0.00 0.00 0.00 63 1021.7
20210927164519 72 0.0 0.0 0.00 0.00 0.00 64 1021.8
20210927163519 72 0.0 0.0 0.00 0.00 0.00 66 1021.8
20210927162519 72 0.0 0.0 0.00 0.00 0.00 65 1022.0
20210927161518 71 0.0 0.0 0.00 0.00 0.00 67 1021.9
20210927160519 71 0.0 0.0 0.00 0.00 0.00 67 1022.1
20210927155519 71 0.0 0.0 0.00 0.00 0.00 68 1022.1
20210927154519 71 0.0 0.0 0.00 0.00 0.00 70 1022.0
20210927153518 70 0.0 0.0 0.00 0.00 0.00 68 1022.0
20210927152519 70 0.0 0.0 0.00 0.00 0.00 69 1022.0
20210927151518 70 0.0 0.0 0.00 0.00 0.00 72 1022.1
20210927150518 69 0.0 0.0 0.00 0.00 0.00 72 1022.1
20210927145518 69 0.0 0.0 0.00 0.00 0.00 72 1022.0
20210927144518 69 0.0 0.0 0.00 0.00 0.00 71 1022.0
20210927143518 68 0.0 0.0 0.00 0.00 0.00 72 1021.8
20210927142518 68 0.0 0.0 0.00 0.00 0.00 74 1021.9
20210927141518 68 0.0 0.0 0.00 0.00 0.00 75 1021.7
20210927140518 68 0.0 0.0 0.00 0.00 0.00 72 1021.7
20210927135518 68 0.0 0.0 0.00 0.00 0.00 73 1021.8
20210927134518 67 0.0 0.0 0.00 0.00 0.00 73 1021.8
20210927133519 67 0.0 0.0 0.00 0.00 0.00 74 1021.7
20210927132519 66 0.0 0.0 0.00 0.00 0.00 75 1021.6
20210927131520 65 0.0 0.0 0.00 0.00 0.00 77 1021.5
20210927130518 63 0.0 0.0 0.00 0.00 0.00 81 1021.3
20210927125518 62 0.0 0.0 0.00 0.00 0.00 83 1021.2
20210927124518 61 0.0 0.0 0.00 0.00 0.00 83 1021.0
20210927123518 60 0.0 0.0 0.00 0.00 0.00 85 1020.9
20210927122518 60 0.0 0.0 0.00 0.00 0.00 84 1020.8
20210927121518 60 0.0 0.0 0.00 0.00 0.00 83 1020.7
20210927120518 60 0.0 0.0 0.00 0.00 0.00 83 1020.8
20210927115518 60 0.0 0.0 0.00 0.00 0.00 83 1020.7
20210927114518 60 0.0 0.0 0.00 0.00 0.00 83 1020.8
20210927113518 60 0.0 0.0 0.00 0.00 0.00 83 1020.9
20210927112518 60 0.0 0.0 0.00 0.00 0.00 83 1020.9
20210927111518 60 0.0 0.0 0.00 0.00 0.00 84 1020.8
20210927110518 60 0.0 0.0 0.00 0.00 0.00 84 1020.7
20210927105518 59 0.0 0.0 0.00 0.00 0.00 84 1020.6
20210927104518 60 0.0 0.0 0.00 0.00 0.00 84 1020.6
20210927103519 60 0.0 0.0 0.00 0.00 0.00 83 1020.7
20210927102518 60 0.0 0.0 0.00 0.00 0.00 84 1020.5
20210927101518 60 0.0 0.0 0.00 0.00 0.00 84 1020.5
20210927100517 60 0.0 0.0 0.00 0.00 0.00 84 1020.4
20210927095518 61 0.0 0.0 0.00 0.00 0.00 84 1020.5
20210927094518 61 0.0 0.0 0.00 0.00 0.00 84 1020.4
20210927093518 60 0.0 0.0 0.00 0.00 0.00 86 1020.3
20210927092517 60 0.0 0.0 0.00 0.00 0.00 88 1020.3
20210927091517 60 0.0 0.0 0.00 0.00 0.00 88 1020.5
20210927090517 60 0.0 0.0 0.00 0.00 0.00 88 1020.5
20210927085518 60 0.0 0.0 0.00 0.00 0.00 88 1020.5
20210927084518 60 0.0 0.0 0.00 0.00 0.00 88 1020.5
20210927083517 60 0.0 0.0 0.00 0.00 0.00 88 1020.6
20210927082517 60 0.0 0.0 0.00 0.00 0.00 87 1020.5
20210927081518 61 0.0 0.0 0.00 0.00 0.00 87 1020.5
20210927080518 61 0.0 0.0 0.00 0.00 0.00 86 1020.6
20210927075517 61 0.0 0.0 0.00 0.00 0.00 86 1020.7
20210927074517 61 0.0 0.0 0.00 0.00 0.00 86 1020.7
20210927073517 60 0.0 0.0 0.00 0.00 0.00 87 1020.7
20210927072520 60 0.0 0.0 0.00 0.00 0.00 86 1020.8
20210927071521 61 0.0 0.0 0.00 0.00 0.00 85 1020.7
20210927070522 61 0.0 0.0 0.00 0.00 0.00 85 1021.0
20210927065522 62 0.0 0.0 0.00 0.00 0.00 84 1021.0
20210927064520 62 0.0 0.0 0.00 0.00 0.00 84 1021.1
20210927063520 61 0.0 0.0 0.00 0.00 0.00 85 1021.1
20210927062522 61 0.0 0.0 0.00 0.00 0.00 85 1021.1
20210927061522 61 0.0 0.0 0.00 0.00 0.00 85 1021.1
20210927060510 60 0.0 0.0 0.00 0.00 0.00 85 1021.0
20210927055519 61 0.0 0.0 0.00 0.00 0.00 85 1020.9
20210927054519 61 0.0 0.0 0.00 0.00 0.00 86 1021.2
20210927053528 61 0.0 0.0 0.00 0.00 0.00 85 1021.2
20210927052517 61 0.0 0.0 0.00 0.00 0.00 85 1021.2
20210927051519 61 0.0 0.0 0.00 0.00 0.00 85 1021.1
20210927050519 61 0.0 0.0 0.00 0.00 0.00 85 1021.1
20210927045519 61 0.0 0.0 0.00 0.00 0.00 83 1021.0
20210927044519 61 0.0 0.0 0.00 0.00 0.00 83 1021.0
20210927043519 61 0.0 0.0 0.00 0.00 0.00 84 1021.1
20210927042519 61 0.0 0.0 0.00 0.00 0.00 82 1021.0
20210927041519 61 0.0 0.0 0.00 0.00 0.00 81 1021.1
20210927040518 61 0.0 0.0 0.00 0.00 0.00 81 1021.1
20210927035519 61 0.0 0.0 0.00 0.00 0.00 81 1021.1
20210927034517 61 0.0 0.0 0.00 0.00 0.00 81 1021.2
20210927033517 60 0.0 0.0 0.00 0.00 0.00 80 1021.0
20210927032519 61 0.0 0.0 0.00 0.00 0.00 80 1021.0
20210927031519 61 0.0 0.0 0.00 0.00 0.00 79 1020.9
20210927030519 61 0.0 0.0 0.00 0.00 0.00 79 1020.9
20210927025517 61 0.0 0.0 0.00 0.00 0.00 80 1020.8
20210927024519 61 0.0 0.0 0.00 0.00 0.00 79 1020.8
20210927023519 61 0.0 0.0 0.00 0.00 0.00 78 1020.8
20210927022519 61 0.0 0.0 0.00 0.00 0.00 78 1020.8
20210927021517 61 0.0 0.0 0.00 0.00 0.00 78 1020.6
20210927020519 61 0.0 0.0 0.00 0.00 0.00 77 1020.6
20210927015518 61 0.0 0.0 0.00 0.00 0.00 77 1020.6
20210927014519 61 0.0 0.0 0.00 0.00 0.00 78 1020.5
20210927013519 61 0.0 0.0 0.00 0.00 0.00 77 1020.6
20210927012519 61 0.0 0.0 0.00 0.00 0.00 77 1020.3
20210927011517 61 0.0 0.0 0.00 0.00 0.00 76 1020.2
20210927010519 61 0.0 0.0 0.00 0.00 0.00 77 1019.9
20210927005519 61 0.0 0.0 0.00 0.00 0.00 78 1019.7
20210927004519 61 0.0 0.0 0.00 0.00 0.00 77 1019.4
20210927003519 61 0.0 0.0 0.00 0.00 0.00 79 1019.4
20210927002519 61 0.0 0.0 0.00 0.00 0.00 80 1019.3
20210927001519 61 0.0 0.0 0.00 0.00 0.00 81 1019.2
20210927000519 61 0.0 0.0 0.00 0.00 0.00 81 1019.1
20210926235519 61 0.0 0.0 0.00 0.00 0.00 82 1019.0
20210926234519 62 0.0 0.0 0.00 0.00 0.00 83 1019.0
20210926233519 62 0.0 0.0 0.00 0.00 0.00 83 1019.0
20210926232519 62 0.0 0.0 0.00 0.00 0.00 82 1019.0
20210926231519 63 0.0 0.0 0.00 0.00 0.00 82 1019.2
20210926230518 64 0.0 0.0 0.00 0.00 0.00 81 1019.1
20210926225519 64 0.0 0.0 0.00 0.00 0.00 80 1019.1
20210926224519 65 0.0 0.0 0.00 0.00 0.00 78 1019.5
20210926223519 66 0.0 0.0 0.00 0.00 0.00 78 1019.4
20210926222518 66 0.0 0.0 0.00 0.00 0.00 74 1019.4
20210926221519 67 0.0 0.0 0.00 0.00 0.00 72 1019.5
20210926220518 67 0.0 0.0 0.00 0.00 0.00 71 1019.5
20210926215519 67 0.0 0.0 0.00 0.00 0.00 71 1019.4
20210926214519 67 0.0 0.0 0.00 0.00 0.00 70 1019.4
20210926213518 67 0.0 0.0 0.00 0.00 0.00 71 1019.4
20210926212519 68 0.0 0.0 0.00 0.00 0.00 70 1019.5
20210926211518 68 0.0 0.0 0.00 0.00 0.00 69 1019.5
20210926210519 68 0.0 0.0 0.00 0.00 0.00 66 1019.7
20210926205518 68 0.0 0.0 0.00 0.00 0.00 68 1019.8
20210926204518 68 0.0 0.0 0.00 0.00 0.00 69 1019.7
20210926203519 68 0.0 0.0 0.00 0.00 0.00 65 1019.7
20210926202519 68 0.0 0.0 0.00 0.00 0.00 67 1019.8
20210926201519 68 0.0 1.0 0.00 0.00 0.00 68 1019.8
20210926200519 69 0.0 0.0 0.00 0.00 0.00 68 1019.9
20210926195519 70 0.0 1.0 0.00 0.00 0.00 67 1020.2
20210926194518 70 0.0 0.0 0.00 0.00 0.00 68 1020.2
20210926193518 70 0.0 0.0 0.00 0.00 0.00 67 1020.4